Regional Weather Roundup
Issued by NWS Goodland, KS

Home | Current Version | Previous Version | Graphics & Text | Print | Product List | Glossary On
Versions: 1 2 3 4 5 6 7 8 9 10 11 12 13 14 15 16 17 18 19 20 21 22 23 24 25 26 27 28 29 30 31 32 33 34 35 36 37 38 39 40 41 42 43 44 45 46 47 48 49 50
000
ASUS43 KGLD 041508
RWRGLD

GOODLAND FORECAST AREA HOURLY WEATHER ROUNDUP
NATIONAL WEATHER SERVICE GOODLAND KS
900 AM MDT SAT JUL 04 2015

...OFFICIAL OBSERVATIONS...

CITY           SKY/WX    TMP DP  RH WIND       PRES   REMARKS
GOODLAND KS    SUNNY     74  62  66 S17       29.99F
HILL CITY KS   SUNNY     79  63  57 S16       29.98F
IMPERIAL NEB   PTSUNNY   75  61  61 S14       29.96F
MCCOOK NEB     SUNNY     77  62  59 S9        29.96F
AKRON CO       SUNNY     75  60  59 S12       29.99S
BURLINGTON CO  MOSUNNY   70  61  73 S16       30.02S
LIMON CO       SUNNY     70  59  68 S8        30.06S
$$

...UNOFFICIAL OBSERVATIONS...

CITY           SKY/WX    TMP DP  RH WIND       PRES   REMARKS
COLBY KS       SUNNY     77  64  65 S20       30.00F
GOVE KS          N/A     78  32  18 MISG        N/A
NORTON KS      SUNNY     75  57  53 S13       29.98
SHARON SPRINGS   N/A     75  64  69 S17         N/A
KIT CARSON CO    N/A     70  61  73 MISG        N/A
YUMA CO          N/A     72  64  75 SE6G14      N/A
$$


USA.gov is the U.S. government's official web portal to all federal, state and local government web resources and services.